Time,TemperatureF,DewpointF,PressureIn,WindDirection,WindDirectionDegrees,WindSpeedMPH,WindSpeedGustMPH,Humidity,HourlyPrecipIn,Conditions,Clouds,dailyrainin,SolarRadiationWatts/m^2,SoftwareType,DateUTC
2013-04-17 00:02:00,75.0,67.0,-100.00,SSW,212,1.0,3.0,76,0.00,,,0.00,0.000000,,2013-04-17 10:02:00,
2013-04-17 00:12:00,75.0,67.0,-100.00,SSW,212,1.0,3.0,76,0.00,,,0.00,0.000000,,2013-04-17 10:12:00,
2013-04-17 00:22:00,75.0,67.0,-100.00,SSW,212,1.0,3.0,76,0.00,,,0.00,0.000000,,2013-04-17 10:22:00,
2013-04-17 00:43:00,74.0,66.0,-100.00,NNW,347,1.0,3.0,77,0.00,,,-99.99,0.000000,,2013-04-17 10:43:00,
2013-04-17 00:52:00,74.0,66.0,-100.00,NNW,347,1.0,3.0,77,0.00,,,-99.99,0.000000,,2013-04-17 10:52:00,
2013-04-17 01:02:00,74.0,66.0,-100.00,NNW,347,1.0,3.0,77,0.00,,,-99.99,0.000000,,2013-04-17 11:02:00,
2013-04-17 01:11:00,74.0,66.0,-100.00,NNW,347,1.0,3.0,77,0.00,,,-99.99,0.000000,,2013-04-17 11:11:00,
2013-04-17 01:21:00,74.0,66.0,-100.00,NNW,347,1.0,3.0,77,0.00,,,-99.99,0.000000,,2013-04-17 11:21:00,
2013-04-17 01:42:00,74.0,66.0,-100.00,WNW,297,1.0,5.0,75,0.00,,,0.00,0.000000,,2013-04-17 11:42:00,
2013-04-17 01:52:00,74.0,66.0,-100.00,WNW,297,1.0,5.0,75,0.00,,,0.00,0.000000,,2013-04-17 11:52:00,
2013-04-17 02:02:00,74.0,66.0,-100.00,WNW,297,1.0,5.0,75,0.00,,,0.00,0.000000,,2013-04-17 12:02:00,
2013-04-17 02:12:00,74.0,66.0,-100.00,WNW,297,1.0,5.0,75,0.00,,,0.00,0.000000,,2013-04-17 12:12:00,
2013-04-17 02:22:00,74.0,66.0,-100.00,WNW,297,1.0,5.0,75,0.00,,,0.00,0.000000,,2013-04-17 12:22:00,
2013-04-17 02:42:00,74.0,64.0,-100.00,SSE,153,1.0,5.0,70,0.00,,,0.00,0.000000,,2013-04-17 12:42:00,
2013-04-17 02:52:00,74.0,64.0,-100.00,SSE,153,1.0,5.0,70,0.00,,,0.00,0.000000,,2013-04-17 12:52:00,
2013-04-17 03:02:00,74.0,64.0,-100.00,SSE,153,1.0,5.0,70,0.00,,,0.00,0.000000,,2013-04-17 13:02:00,
2013-04-17 03:12:00,74.0,64.0,-100.00,SSE,153,1.0,5.0,70,0.00,,,0.00,0.000000,,2013-04-17 13:12:00,
2013-04-17 03:21:00,74.0,64.0,-100.00,SSE,153,1.0,5.0,70,0.00,,,0.00,0.000000,,2013-04-17 13:21:00,
2013-04-17 03:52:00,74.0,64.0,-100.00,ESE,110,2.0,4.0,72,0.00,,,0.00,0.000000,,2013-04-17 13:52:00,
2013-04-17 04:02:00,74.0,64.0,-100.00,ESE,110,2.0,4.0,72,0.00,,,0.00,0.000000,,2013-04-17 14:02:00,
2013-04-17 04:12:00,74.0,64.0,-100.00,ESE,110,2.0,4.0,72,0.00,,,0.00,0.000000,,2013-04-17 14:12:00,
2013-04-17 04:22:00,74.0,64.0,-100.00,ESE,110,2.0,4.0,72,0.00,,,0.00,0.000000,,2013-04-17 14:22:00,
2013-04-17 04:43:00,74.0,65.0,-100.00,SSW,209,0.0,2.0,74,0.00,,,0.00,0.000000,,2013-04-17 14:43:00,
2013-04-17 04:52:00,74.0,65.0,-100.00,SSW,209,0.0,2.0,74,0.00,,,0.00,0.000000,,2013-04-17 14:52:00,
2013-04-17 05:02:00,74.0,65.0,-100.00,SSW,209,0.0,2.0,74,0.00,,,0.00,0.000000,,2013-04-17 15:02:00,
2013-04-17 05:12:00,74.0,65.0,-100.00,SSW,209,0.0,2.0,74,0.00,,,0.00,0.000000,,2013-04-17 15:12:00,
2013-04-17 05:21:00,74.0,65.0,-100.00,SSW,209,0.0,2.0,74,0.00,,,0.00,0.000000,,2013-04-17 15:21:00,
2013-04-17 05:43:00,73.0,64.0,-100.00,SSE,149,1.0,2.0,74,0.00,,,0.00,0.000000,,2013-04-17 15:43:00,
2013-04-17 05:53:00,73.0,64.0,-100.00,SSE,149,1.0,2.0,74,0.00,,,0.00,0.000000,,2013-04-17 15:53:00,
2013-04-17 06:03:00,73.0,64.0,-100.00,SSE,149,1.0,2.0,74,0.00,,,0.00,0.000000,,2013-04-17 16:03:00,
2013-04-17 06:12:00,73.0,64.0,-100.00,SSE,149,1.0,2.0,74,0.00,,,0.00,0.000000,,2013-04-17 16:12:00,
2013-04-17 06:22:00,73.0,64.0,-100.00,SSE,149,1.0,2.0,74,0.00,,,0.00,0.000000,,2013-04-17 16:22:00,
2013-04-17 06:42:00,72.0,64.0,-100.00,ENE,70,2.0,5.0,76,0.00,,,0.00,0.000000,,2013-04-17 16:42:00,
2013-04-17 06:52:00,72.0,64.0,-100.00,ENE,70,2.0,5.0,76,0.00,,,0.00,0.000000,,2013-04-17 16:52:00,
2013-04-17 07:02:00,72.0,64.0,-100.00,ENE,70,2.0,5.0,76,0.00,,,0.00,0.000000,,2013-04-17 17:02:00,
2013-04-17 07:12:00,72.0,64.0,-100.00,ENE,70,2.0,5.0,76,0.00,,,0.00,0.000000,,2013-04-17 17:12:00,
2013-04-17 07:22:00,72.0,64.0,-100.00,ENE,70,2.0,5.0,76,0.00,,,0.00,0.000000,,2013-04-17 17:22:00,
2013-04-17 07:42:00,73.0,63.0,-100.00,ENE,72,3.0,5.0,71,0.00,,,0.00,40.000000,,2013-04-17 17:42:00,
2013-04-17 07:52:00,73.0,63.0,-100.00,ENE,72,3.0,5.0,71,0.00,,,0.00,40.000000,,2013-04-17 17:52:00,
2013-04-17 08:02:00,73.0,63.0,-100.00,ENE,72,3.0,5.0,71,0.00,,,0.00,40.000000,,2013-04-17 18:02:00,
2013-04-17 08:12:00,73.0,63.0,-100.00,ENE,72,3.0,5.0,71,0.00,,,0.00,40.000000,,2013-04-17 18:12:00,
2013-04-17 08:21:00,73.0,63.0,-100.00,ENE,72,3.0,5.0,71,0.00,,,0.00,40.000000,,2013-04-17 18:21:00,
2013-04-17 08:42:00,75.0,64.0,-100.00,East,91,2.0,6.0,69,0.00,,,0.00,102.000000,,2013-04-17 18:42:00,
2013-04-17 08:52:00,75.0,64.0,-100.00,East,91,2.0,6.0,69,0.00,,,0.00,102.000000,,2013-04-17 18:52:00,
2013-04-17 09:02:00,75.0,64.0,-100.00,East,91,2.0,6.0,69,0.00,,,0.00,102.000000,,2013-04-17 19:02:00,
2013-04-17 09:12:00,75.0,64.0,-100.00,East,91,2.0,6.0,69,0.00,,,0.00,102.000000,,2013-04-17 19:12:00,
2013-04-17 09:21:00,75.0,64.0,-100.00,East,91,2.0,6.0,69,0.00,,,0.00,102.000000,,2013-04-17 19:21:00,
2013-04-17 09:42:00,77.0,64.0,-100.00,WNW,297,3.0,12.0,65,0.00,,,0.00,430.000000,,2013-04-17 19:42:00,
2013-04-17 09:52:00,77.0,64.0,-100.00,WNW,297,3.0,12.0,65,0.00,,,0.00,430.000000,,2013-04-17 19:52:00,
2013-04-17 10:02:00,77.0,64.0,-100.00,WNW,297,3.0,12.0,65,0.00,,,0.00,430.000000,,2013-04-17 20:02:00,
2013-04-17 10:12:00,77.0,64.0,-100.00,WNW,297,3.0,12.0,65,0.00,,,0.00,430.000000,,2013-04-17 20:12:00,
2013-04-17 10:21:00,77.0,64.0,-100.00,WNW,297,3.0,12.0,65,0.00,,,0.00,430.000000,,2013-04-17 20:21:00,
2013-04-17 10:42:00,77.0,64.0,-100.00,NW,308,9.0,16.0,65,0.00,,,0.00,476.000000,,2013-04-17 20:42:00,
2013-04-17 10:52:00,77.0,64.0,-100.00,NW,308,9.0,16.0,65,0.00,,,0.00,476.000000,,2013-04-17 20:52:00,
2013-04-17 11:02:00,77.0,64.0,-100.00,NW,308,9.0,16.0,65,0.00,,,0.00,476.000000,,2013-04-17 21:02:00,
2013-04-17 11:12:00,77.0,64.0,-100.00,NW,308,9.0,16.0,65,0.00,,,0.00,476.000000,,2013-04-17 21:12:00,
2013-04-17 11:21:00,77.0,64.0,-100.00,NW,308,9.0,16.0,65,0.00,,,0.00,476.000000,,2013-04-17 21:21:00,
2013-04-17 11:43:00,79.0,68.0,-100.00,West,273,8.0,14.0,68,0.00,,,0.00,870.000000,,2013-04-17 21:43:00,
2013-04-17 11:53:00,79.0,68.0,-100.00,West,273,8.0,14.0,68,0.00,,,0.00,870.000000,,2013-04-17 21:53:00,
2013-04-17 12:02:00,79.0,68.0,-100.00,West,273,8.0,14.0,68,0.00,,,0.00,870.000000,,2013-04-17 22:02:00,
2013-04-17 12:12:00,79.0,68.0,-100.00,West,273,8.0,14.0,68,0.00,,,0.00,870.000000,,2013-04-17 22:12:00,
2013-04-17 12:22:00,79.0,68.0,-100.00,West,273,8.0,14.0,68,0.00,,,0.00,870.000000,,2013-04-17 22:22:00,
2013-04-17 12:43:00,80.0,66.0,-100.00,West,261,6.0,11.0,62,0.00,,,0.00,955.000000,,2013-04-17 22:43:00,
2013-04-17 12:53:00,80.0,66.0,-100.00,West,261,6.0,11.0,62,0.00,,,0.00,955.000000,,2013-04-17 22:53:00,
2013-04-17 13:02:00,80.0,66.0,-100.00,West,261,6.0,11.0,62,0.00,,,0.00,955.000000,,2013-04-17 23:02:00,
2013-04-17 13:12:00,80.0,66.0,-100.00,West,261,6.0,11.0,62,0.00,,,0.00,955.000000,,2013-04-17 23:12:00,
2013-04-17 13:22:00,80.0,66.0,-100.00,West,261,6.0,11.0,62,0.00,,,0.00,955.000000,,2013-04-17 23:22:00,
2013-04-17 13:42:00,81.0,67.0,-100.00,West,267,7.0,11.0,62,0.00,,,-99.99,1055.000000,,2013-04-17 23:42:00,
2013-04-17 13:52:00,81.0,67.0,-100.00,West,267,7.0,11.0,62,0.00,,,-99.99,1055.000000,,2013-04-17 23:52:00,
2013-04-17 14:02:00,81.0,67.0,-100.00,West,267,7.0,11.0,62,0.00,,,-99.99,1055.000000,,2013-04-18 00:02:00,
2013-04-17 14:12:00,81.0,67.0,-100.00,West,267,7.0,11.0,62,0.00,,,-99.99,1055.000000,,2013-04-18 00:12:00,
2013-04-17 14:21:00,81.0,67.0,-100.00,West,267,7.0,11.0,62,0.00,,,-99.99,1055.000000,,2013-04-18 00:21:00,
2013-04-17 14:42:00,81.0,66.0,-100.00,WSW,257,6.0,10.0,61,0.00,,,0.00,936.000000,,2013-04-18 00:42:00,
2013-04-17 14:52:00,81.0,66.0,-100.00,WSW,257,6.0,10.0,61,0.00,,,0.00,936.000000,,2013-04-18 00:52:00,
2013-04-17 15:02:00,81.0,66.0,-100.00,WSW,257,6.0,10.0,61,0.00,,,0.00,936.000000,,2013-04-18 01:02:00,
2013-04-17 15:12:00,81.0,66.0,-100.00,WSW,257,6.0,10.0,61,0.00,,,0.00,936.000000,,2013-04-18 01:12:00,
2013-04-17 15:22:00,81.0,66.0,-100.00,WSW,257,6.0,10.0,61,0.00,,,0.00,936.000000,,2013-04-18 01:22:00,
2013-04-17 15:42:00,81.0,68.0,-100.00,West,267,6.0,10.0,64,0.00,,,0.00,844.000000,,2013-04-18 01:42:00,
2013-04-17 15:52:00,81.0,68.0,-100.00,West,267,6.0,10.0,64,0.00,,,0.00,844.000000,,2013-04-18 01:52:00,
2013-04-17 16:02:00,81.0,68.0,-100.00,West,267,6.0,10.0,64,0.00,,,0.00,844.000000,,2013-04-18 02:02:00,
2013-04-17 16:12:00,81.0,68.0,-100.00,West,267,6.0,10.0,64,0.00,,,0.00,844.000000,,2013-04-18 02:12:00,
2013-04-17 16:22:00,81.0,68.0,-100.00,West,267,6.0,10.0,64,0.00,,,0.00,844.000000,,2013-04-18 02:22:00,
2013-04-17 17:02:00,81.0,68.0,-100.00,WSW,254,5.0,9.0,65,0.00,,,0.00,678.000000,,2013-04-18 03:02:00,
2013-04-17 17:12:00,81.0,68.0,-100.00,WSW,254,5.0,9.0,65,0.00,,,0.00,678.000000,,2013-04-18 03:12:00,
2013-04-17 17:21:00,81.0,68.0,-100.00,WSW,254,5.0,9.0,65,0.00,,,0.00,678.000000,,2013-04-18 03:21:00,
2013-04-17 17:43:00,81.0,68.0,-100.00,WSW,243,5.0,9.0,65,0.00,,,0.00,443.000000,,2013-04-18 03:43:00,
2013-04-17 17:53:00,81.0,68.0,-100.00,WSW,243,5.0,9.0,65,0.00,,,0.00,443.000000,,2013-04-18 03:53:00,
2013-04-17 18:03:00,81.0,68.0,-100.00,WSW,243,5.0,9.0,65,0.00,,,0.00,443.000000,,2013-04-18 04:03:00,
2013-04-17 18:13:00,81.0,68.0,-100.00,WSW,243,5.0,9.0,65,0.00,,,0.00,443.000000,,2013-04-18 04:13:00,
2013-04-17 18:23:00,81.0,68.0,-100.00,WSW,243,5.0,9.0,65,0.00,,,0.00,443.000000,,2013-04-18 04:23:00,
2013-04-17 18:43:00,79.0,67.0,-100.00,WSW,245,4.0,9.0,66,0.00,,,0.00,210.000000,,2013-04-18 04:43:00,
2013-04-17 18:53:00,79.0,67.0,-100.00,WSW,245,4.0,9.0,66,0.00,,,0.00,210.000000,,2013-04-18 04:53:00,
2013-04-17 19:02:00,79.0,67.0,-100.00,WSW,245,4.0,9.0,66,0.00,,,0.00,210.000000,,2013-04-18 05:02:00,
2013-04-17 19:12:00,79.0,67.0,-100.00,WSW,245,4.0,9.0,66,0.00,,,0.00,210.000000,,2013-04-18 05:12:00,
2013-04-17 19:21:00,79.0,67.0,-100.00,WSW,245,4.0,9.0,66,0.00,,,0.00,210.000000,,2013-04-18 05:21:00,
2013-04-17 19:42:00,78.0,67.0,-100.00,West,264,4.0,8.0,69,0.00,,,0.00,31.000000,,2013-04-18 05:42:00,
2013-04-17 19:52:00,78.0,67.0,-100.00,West,264,4.0,8.0,69,0.00,,,0.00,31.000000,,2013-04-18 05:52:00,
2013-04-17 20:02:00,78.0,67.0,-100.00,West,264,4.0,8.0,69,0.00,,,0.00,31.000000,,2013-04-18 06:02:00,
2013-04-17 20:12:00,78.0,67.0,-100.00,West,264,4.0,8.0,69,0.00,,,0.00,31.000000,,2013-04-18 06:12:00,
2013-04-17 20:21:00,78.0,67.0,-100.00,West,264,4.0,8.0,69,0.00,,,0.00,31.000000,,2013-04-18 06:21:00,
2013-04-17 20:42:00,76.0,66.0,-100.00,WSW,254,3.0,8.0,72,0.00,,,0.00,0.000000,,2013-04-18 06:42:00,
2013-04-17 20:52:00,76.0,66.0,-100.00,WSW,254,3.0,8.0,72,0.00,,,0.00,0.000000,,2013-04-18 06:52:00,
2013-04-17 21:02:00,76.0,66.0,-100.00,WSW,254,3.0,8.0,72,0.00,,,0.00,0.000000,,2013-04-18 07:02:00,
2013-04-17 21:12:00,76.0,66.0,-100.00,WSW,254,3.0,8.0,72,0.00,,,0.00,0.000000,,2013-04-18 07:12:00,
2013-04-17 21:21:00,76.0,66.0,-100.00,WSW,254,3.0,8.0,72,0.00,,,0.00,0.000000,,2013-04-18 07:21:00,
2013-04-17 21:42:00,76.0,62.0,-100.00,SSW,201,2.0,9.0,62,0.00,,,0.00,0.000000,,2013-04-18 07:42:00,
2013-04-17 21:52:00,76.0,62.0,-100.00,SSW,201,2.0,9.0,62,0.00,,,0.00,0.000000,,2013-04-18 07:52:00,
2013-04-17 22:02:00,76.0,62.0,-100.00,SSW,201,2.0,9.0,62,0.00,,,0.00,0.000000,,2013-04-18 08:02:00,
2013-04-17 22:12:00,76.0,62.0,-100.00,SSW,201,2.0,9.0,62,0.00,,,0.00,0.000000,,2013-04-18 08:12:00,
2013-04-17 22:22:00,76.0,62.0,-100.00,SSW,201,2.0,9.0,62,0.00,,,0.00,0.000000,,2013-04-18 08:22:00,
2013-04-17 22:42:00,76.0,56.0,-100.00,ESE,108,12.0,23.0,50,0.00,,,0.00,0.000000,,2013-04-18 08:42:00,
2013-04-17 22:52:00,76.0,56.0,-100.00,ESE,108,12.0,23.0,50,0.00,,,0.00,0.000000,,2013-04-18 08:52:00,
2013-04-17 23:02:00,76.0,56.0,-100.00,ESE,108,12.0,23.0,50,0.00,,,0.00,0.000000,,2013-04-18 09:02:00,
2013-04-17 23:11:00,76.0,56.0,-100.00,ESE,108,12.0,23.0,50,0.00,,,0.00,0.000000,,2013-04-18 09:11:00,
2013-04-17 23:22:00,76.0,56.0,-100.00,ESE,108,12.0,23.0,50,0.00,,,0.00,0.000000,,2013-04-18 09:22:00,
2013-04-17 23:43:00,75.0,58.0,-100.00,East,88,14.0,25.0,55,0.00,,,0.00,0.000000,,2013-04-18 09:43:00,
2013-04-17 23:53:00,75.0,58.0,-100.00,East,88,14.0,25.0,55,0.00,,,0.00,0.000000,,2013-04-18 09:53:00,